Newcastle, WY

3:15 PM MDT on April 24, 2018 (GMT -0600)
Mondell

Weather History for KECS - June, 2013

Change the Weather History Date:

Monday, June 24, 2013

  Actual Average (KCUT) Record (KCUT)
Temperature  
Mean Temperature 76 °F -  
Max Temperature 89 °F 76 °F 96 °F (1988)
Min Temperature 64 °F 48 °F 32 °F (1960)
Cooling Degree Days 12    
Growing Degree Days 26 (Base 50)    
Moisture  
Dew Point 42 °F    
Average Humidity 35    
Maximum Humidity 59    
Minimum Humidity 13    
Precipitation  
Precipitation 0.00 in - - ()
Sea Level Pressure  
Sea Level Pressure 29.76 in    
Wind  
Wind Speed 13 mph (ESE)    
Max Wind Speed 21 mph    
Max Gust Speed 30 mph    
Visibility 10 miles    
Events      
Averages and records for this station are not official NWS values.
T = Trace of Precipitation, MM = Missing Value Source: NWS Daily Summary

Daily Weather History Graph

Daily Weather History Graph

Search for Another Location

Airport or City:

Astronomy

Jun. 24, 2013 Rise Set
Actual Time 5:15 AM MDT 8:43 PM MDT
Civil Twilight 4:39 AM MDT 9:19 PM MDT
Nautical Twilight 3:51 AM MDT 10:07 PM MDT
Astronomical Twilight 2:51 AM MDT 11:07 PM MDT
Moon 9:42 PM MDT 6:50 AM MDT
Length of Visible Light 16h 40m
Length of Day
15h 28m
Full, 97% of the Moon is Illuminated
Jun 24
Full
Jun 29
Last Quarter
Jul 8
New
Jul 15
First Quarter
Jul 22
Full

Hourly Weather History & Observations

Time (MDT) Temp. Dew Point Humidity Pressure Visibility Wind Dir Wind Speed Gust Speed Precip Events Conditions
12:15 AM 68.0 °F 50.0 °F 52% 29.83 in 10.0 mi East 19.6 mph 26.5 mph N/A   Clear
12:35 AM 68.0 °F 50.0 °F 52% 29.83 in 10.0 mi East 19.6 mph 26.5 mph N/A   Clear
12:55 AM 68.0 °F 50.0 °F 52% 29.82 in 10.0 mi East 20.7 mph 26.5 mph N/A   Clear
1:15 AM 68.0 °F 50.0 °F 52% 29.83 in 10.0 mi ESE 18.4 mph 26.5 mph N/A   Clear
1:35 AM 68.0 °F 51.8 °F 56% 29.82 in 10.0 mi ESE 17.3 mph 25.3 mph N/A   Clear
1:55 AM 68.0 °F 50.0 °F 52% 29.81 in 10.0 mi ESE 15.0 mph 26.5 mph N/A   Clear
2:15 AM 68.0 °F 50.0 °F 52% 29.80 in 10.0 mi North - - N/A   Clear
2:35 AM 66.2 °F 50.0 °F 56% 29.79 in 10.0 mi ESE 16.1 mph - N/A   Clear
2:55 AM 68.0 °F 50.0 °F 52% 29.79 in 10.0 mi ESE 16.1 mph 20.7 mph N/A   Clear
3:15 AM 66.2 °F 50.0 °F 56% 29.78 in 10.0 mi ESE 16.1 mph - N/A   Clear
3:35 AM 66.2 °F 50.0 °F 56% 29.78 in 10.0 mi ESE 16.1 mph - N/A   Clear
3:55 AM 64.4 °F 50.0 °F 59% 29.78 in 10.0 mi East 15.0 mph - N/A   Clear
4:15 AM 66.2 °F 48.2 °F 52% 29.78 in 10.0 mi ESE 12.7 mph - N/A   Clear
4:35 AM 64.4 °F 48.2 °F 56% 29.78 in 10.0 mi ESE 12.7 mph - N/A   Clear
4:55 AM 64.4 °F 46.4 °F 52% 29.78 in 10.0 mi East 10.4 mph - N/A   Clear
5:15 AM 64.4 °F 46.4 °F 52% 29.78 in 10.0 mi East 10.4 mph 16.1 mph N/A   Clear
5:35 AM 64.4 °F 46.4 °F 52% 29.78 in 10.0 mi East 9.2 mph - N/A   Clear
5:55 AM 64.4 °F 46.4 °F 52% 29.78 in 10.0 mi North - - N/A   Clear
6:15 AM 64.4 °F 46.4 °F 52% 29.78 in 10.0 mi East 8.1 mph - N/A   Clear
6:35 AM 64.4 °F 46.4 °F 52% 29.78 in 10.0 mi East 9.2 mph - N/A   Clear
6:55 AM 64.4 °F 46.4 °F 52% 29.78 in 10.0 mi East 8.1 mph - N/A   Clear
7:15 AM 68.0 °F 46.4 °F 46% 29.78 in 10.0 mi North - - N/A   Clear
7:35 AM 68.0 °F 46.4 °F 46% 29.78 in 10.0 mi North - - N/A   Clear
7:55 AM 68.0 °F 50.0 °F 52% 29.78 in 10.0 mi North - - N/A   Clear
8:15 AM 71.6 °F 46.4 °F 41% 29.78 in 10.0 mi North - - N/A   Clear
8:35 AM 71.6 °F 46.4 °F 41% 29.78 in 10.0 mi SE 9.2 mph - N/A   Clear
8:55 AM 71.6 °F 48.2 °F 43% 29.78 in 10.0 mi SSE 9.2 mph - N/A   Clear
9:15 AM 71.6 °F 50.0 °F 46% 29.78 in 10.0 mi SSE 8.1 mph - N/A   Clear
9:35 AM 73.4 °F 48.2 °F 41% 29.78 in 10.0 mi SE 9.2 mph - N/A   Clear
9:55 AM 73.4 °F 48.2 °F 41% 29.78 in 10.0 mi SE 8.1 mph - N/A   Clear
10:15 AM 75.2 °F 50.0 °F 41% 29.78 in 10.0 mi SE 10.4 mph - N/A   Clear
10:35 AM 75.2 °F 46.4 °F 36% 29.77 in 10.0 mi SSE 8.1 mph - N/A   Clear
10:55 AM 77.0 °F 46.4 °F 34% 29.77 in 10.0 mi North - - N/A   Clear
11:15 AM 78.8 °F 46.4 °F 32% 29.77 in 10.0 mi SE 3.5 mph - N/A   Clear
11:35 AM 78.8 °F 44.6 °F 30% 29.76 in 10.0 mi SE 4.6 mph - N/A   Clear
11:55 AM 80.6 °F 46.4 °F 30% 29.75 in 10.0 mi North - - N/A   Clear
12:15 PM 82.4 °F 44.6 °F 26% 29.75 in 10.0 mi SSE 6.9 mph - N/A   Clear
12:35 PM 82.4 °F 44.6 °F 26% 29.75 in 10.0 mi SE 4.6 mph - N/A   Clear
12:55 PM 84.2 °F 42.8 °F 23% 29.74 in 10.0 mi SSE 4.6 mph - N/A   Clear
1:15 PM 86.0 °F 42.8 °F 22% 29.74 in 10.0 mi North - - N/A   Clear
1:35 PM 86.0 °F 37.4 °F 18% 29.73 in 10.0 mi SSE 5.8 mph - N/A   Clear
1:55 PM 87.8 °F 37.4 °F 17% 29.72 in 10.0 mi NE 3.5 mph - N/A   Clear
2:15 PM 87.8 °F 33.8 °F 15% 29.72 in 10.0 mi SE 4.6 mph - N/A   Clear
2:35 PM 87.8 °F 32.0 °F 14% 29.71 in 10.0 mi Calm Calm - N/A   Clear
2:55 PM 87.8 °F 32.0 °F 14% 29.70 in 10.0 mi Calm Calm - N/A   Clear
3:15 PM 87.8 °F 32.0 °F 14% 29.69 in 10.0 mi South 4.6 mph - N/A   Clear
3:35 PM 86.0 °F 32.0 °F 14% 29.69 in 10.0 mi ESE 4.6 mph - N/A   Clear
3:55 PM 89.6 °F 32.0 °F 13% 29.70 in 10.0 mi SE 5.8 mph - N/A   Clear
4:15 PM 86.0 °F 32.0 °F 14% 29.71 in 10.0 mi SSE 11.5 mph 16.1 mph N/A   Clear
4:35 PM 87.8 °F 33.8 °F 15% 29.72 in 10.0 mi South 18.4 mph 21.9 mph N/A   Clear
4:55 PM 84.2 °F 42.8 °F 23% 29.73 in 10.0 mi SE 20.7 mph 29.9 mph N/A   Clear
5:15 PM 80.6 °F 41.0 °F 24% 29.74 in 10.0 mi SE 17.3 mph 25.3 mph N/A   Clear
5:35 PM 80.6 °F 35.6 °F 20% 29.74 in 10.0 mi ESE 16.1 mph 23.0 mph N/A   Clear
5:55 PM 78.8 °F 33.8 °F 20% 29.72 in 10.0 mi ESE 12.7 mph - N/A   Clear
6:15 PM 78.8 °F 33.8 °F 20% 29.70 in 10.0 mi East 9.2 mph - N/A   Clear
6:35 PM 80.6 °F 35.6 °F 20% 29.69 in 10.0 mi East 9.2 mph - N/A   Clear
6:55 PM 78.8 °F 33.8 °F 20% 29.70 in 10.0 mi North - - N/A   Clear
7:15 PM 78.8 °F 32.0 °F 18% 29.70 in 10.0 mi East 10.4 mph - N/A   Clear
7:35 PM 78.8 °F 33.8 °F 20% 29.70 in 10.0 mi North - - N/A   Clear
7:55 PM 78.8 °F 33.8 °F 20% 29.71 in 10.0 mi North - - N/A   Clear
8:15 PM 77.0 °F 33.8 °F 21% 29.72 in 10.0 mi North - - N/A   Clear
8:35 PM 77.0 °F 33.8 °F 21% 29.74 in 10.0 mi North - - N/A   Clear
8:55 PM 73.4 °F 35.6 °F 25% 29.73 in 10.0 mi SE 3.5 mph - N/A   Clear
9:15 PM 69.8 °F 37.4 °F 31% 29.74 in 10.0 mi North - - N/A   Clear
9:35 PM 69.8 °F 37.4 °F 31% 29.77 in 10.0 mi SE 15.0 mph 20.7 mph N/A   Clear
9:55 PM 68.0 °F 37.4 °F 33% 29.77 in 10.0 mi ESE 10.4 mph - N/A   Clear
10:15 PM 69.8 °F 35.6 °F 28% 29.77 in 10.0 mi North - - N/A   Clear
10:35 PM 71.6 °F 35.6 °F 27% 29.76 in 10.0 mi North - - N/A   Clear
10:55 PM 71.6 °F 37.4 °F 29% 29.76 in 10.0 mi ESE 18.4 mph - N/A   Clear
11:15 PM 71.6 °F 37.4 °F 29% 29.76 in 10.0 mi ESE 18.4 mph 23.0 mph N/A   Clear
11:35 PM 69.8 °F 37.4 °F 31% 29.77 in 10.0 mi ESE 15.0 mph 19.6 mph N/A   Clear
11:55 PM 69.8 °F 37.4 °F 31% 29.77 in 10.0 mi ESE 15.0 mph 23.0 mph N/A   Clear